Regional Weather Roundup
Issued by NWS

Home | Current Version | Previous Version | Text Only | Print | Product List | Glossary Off
Versions: 1 2 3 4 5 6 7 8 9 10 11 12 13 14 15 16 17 18 19 20 21 22 23 24 25 26 27 28 29 30 31 32 33 34 35 36 37 38 39 40 41 42 43 44 45 46 47 48 49 50

000
ASUS43 KOAX 231910
RWRNE

WEATHER ROUNDUP FOR NEBRASKA
NATIONAL WEATHER SERVICE OMAHA NE
200 PM CDT WED JUL 23 2014

NOTES: SATELLITE DATA IS BEING USED TO AUGMENT CLOUD COVER ABOVE
       12000 FEET.
       "FAIR" INDICATES FEW OR NO CLOUDS BELOW 12,000 FEET WITH NO
       SIGNIFICANT WEATHER AND/OR OBSTRUCTIONS TO VISIBILITY.

  * THESE STATIONS DO NOT REPORT WEATHER SUCH AS RAIN...SNOW OR FOG.

NEZ001>004-019>022-054>056-232000-
NEBRASKA PANHANDLE

CITY           SKY/WX    TMP DP  RH WIND       PRES   REMARKS
SCOTTSBLUFF    MOSUNNY   86  64  47 S17G26    30.24F
ALLIANCE       SUNNY     90  55  30 S17G23    30.25F
CHADRON        SUNNY     91  58  32 S18G24    30.19F HX  90
KIMBALL        CLOUDY    76  64  65 S17G25    30.32F
SIDNEY         MOSUNNY   85  63  47 S24G31    30.31F
$$

NEZ057>060-069>072-079>082-232000-
SOUTHWEST NEBRASKA

CITY           SKY/WX    TMP DP  RH WIND       PRES   REMARKS
NORTH PLATTE   MOSUNNY   76  65  68 E14       30.24R
IMPERIAL       MOSUNNY   84  65  52 SW10      30.24F
LEXINGTON      CLOUDY    75  63  66 E13       30.24F
MCCOOK         CLOUDY    75  65  70 NW7       30.20S
OGALLALA       SUNNY     89  58  35 S14       30.22F
$$

NEZ005>010-023>029-035>040-094-232000-
NORTH CENTRAL NEBRASKA

CITY           SKY/WX    TMP DP  RH WIND       PRES   REMARKS
VALENTINE      SUNNY     86  58  38 S15       30.23F
AINSWORTH      SUNNY     80  57  44 SE13G18   30.25F
BROKEN BOW     MOSUNNY   78  58  49 SE12G24   30.26F
O`NEILL        SUNNY     80  52  37 E9        30.26S
ORD            MOSUNNY   79  58  48 SE12      30.24F
THEDFORD       SUNNY     80  61  51 SE13G18   30.27S
$$

NEZ041-046>049-061>064-073>077-083>087-232000-
SOUTH CENTRAL NEBRASKA

CITY           SKY/WX    TMP DP  RH WIND       PRES   REMARKS
GRAND ISLAND   PTSUNNY   78  59  51 VRB3      30.27F
AURORA         PTSUNNY   79  59  50 CALM      30.26F
HASTINGS       CLOUDY    76  59  55 CALM      30.26F
HEBRON         CLOUDY    80  58  46 CALM      30.24F
HOLDREGE       CLOUDY    73  62  66 E12       30.23F
KEARNEY *      CLOUDY    77  61  57 E10       30.27S
YORK           PTSUNNY   79  59  50 E3        30.25R
$$

NEZ011>018-030>034-042>045-232000-
NORTHEAST NEBRASKA

CITY           SKY/WX    TMP DP  RH WIND       PRES   REMARKS
NORFOLK        MOSUNNY   82  55  39 VRB7      30.23F
ALBION         MOSUNNY   79  54  41 E6        30.26S
BLAIR          MOSUNNY   81  44  26 N9        30.23S
COLUMBUS *     MOSUNNY   81  57  44 E8        30.25R
FREMONT        MOSUNNY   83  57  41 N6        30.23S
TEKAMAH        MOSUNNY   84  58  40 NE8       30.23S
WAYNE          SUNNY     81  60  49 NE7       30.25F
$$

NEZ050>053-065>068-078-088>093-232000-
SOUTHEAST NEBRASKA

CITY           SKY/WX    TMP DP  RH WIND       PRES   REMARKS
LINCOLN        PTSUNNY   85  56  37 NE9       30.22F
OMAHA EPPLEY   MOSUNNY   84  58  40 N12       30.21F
BEATRICE       CLOUDY    82  62  51 E9        30.21S
FALLS CITY     SUNNY     84  63  49 NE8       30.17F
NEBRASKA CITY  SUNNY     81  57  43 E8        30.20F
PLATTSMOUTH    MOSUNNY   83  54  37 N6        30.21S
$$

NEZ044-045-051>053-067-232000-
OMAHA AREA

CITY           SKY/WX    TMP DP  RH WIND       PRES   REMARKS
OMAHA EPPLEY   MOSUNNY   84  58  40 N12       30.21F
BLAIR          MOSUNNY   81  44  26 N9        30.23S
FREMONT        MOSUNNY   83  57  41 N6        30.23S
MILLARD        MOSUNNY   83  58  42 CALM      30.21S
OFFUTT AFB     MOSUNNY   84  58  41 N9        30.21S
PLATTSMOUTH    MOSUNNY   83  54  37 N6        30.21S
WAHOO          FAIR      82  58  43 NE5       30.23S
$$



USA.gov is the U.S. government's official web portal to all federal, state and local government web resources and services.